x

9440910 - Toke Point, Wa (tokw1) Weather Station

2:48pm - Thu 19th Jan 2017 All times are PST. -8 hours from GMT.

  • Wind
    22mph, 30mph gusts
  • Sea Temp 46°f
  • Sea Pressure 998mb
  • 9440910 - Toke Point, Wa
  • 9440910 - Toke Point, Wa

More Historic Weather Station data

Upgrade to MSW Pro to gain access to the past 30 days of data for over 8000 Wavebouys and Weather Stations around the globe.

Join Pro

Comparision Forecast

View Surf forecast
   
Thu 01/19 2:48pm 22 30 mph 998mb 46f -
2:42pm 18 25 mph 998mb 46f 48f
2:36pm 21 26 mph 998mb 46f 48f
2:30pm 18 25 mph 998mb 46f 48f
2:24pm 20 24 mph 998mb 46f 48f
2:18pm 15 20 mph 998.1mb 46f 47f
2:12pm 15 22 mph 998.2mb 46f 47f
2:06pm 15 22 mph 998.1mb 46f 47f
2:00pm 18 25 mph 998.1mb 46f 47f
1:54pm 21 24 mph 998.1mb 46f 48f
1:48pm 16 22 mph 998.2mb 46f 48f
1:42pm 17 26 mph 998.2mb 46f 48f
1:36pm 18 24 mph 998.2mb 46f 48f
1:30pm 16 21 mph 998.3mb 46f 48f
1:24pm 17 24 mph 998.3mb 46f 48f
1:18pm 20 24 mph 998.3mb 46f 48f
1:12pm 16 29 mph 998.4mb 46f 48f
1:06pm 17 22 mph 998.4mb 46f 47f
1:00pm 21 24 mph 998.5mb 46f 47f
12:54pm 21 24 mph 998.5mb 46f 47f
12:48pm 16 22 mph 998.5mb 46f 47f
12:42pm 17 22 mph 998.6mb 46f 47f
12:36pm 16 25 mph 998.7mb 46f 47f
12:30pm 17 21 mph 998.7mb 46f 47f
12:24pm 15 21 mph 998.8mb 46f 47f
12:18pm 11 20 mph 998.9mb - -
12:12pm 15 20 mph 998.9mb 46f 47f
12:06pm 14 18 mph 998.9mb 46f 47f
12:00pm 14 20 mph 998.9mb 46f 47f
11:54am 16 22 mph 998.9mb 46f 47f
11:48am 16 21 mph 998.9mb 46f 47f
11:42am 18 23 mph 999mb 46f 47f
11:36am 18 24 mph 999mb 46f 47f
11:30am 15 21 mph 999mb 46f 47f
11:24am 17 21 mph 999mb 46f 47f
11:18am 16 20 mph 999.1mb 46f 47f
11:12am 17 21 mph 999.1mb 46f 47f
11:06am 15 20 mph 999.2mb 46f 47f
11:00am 15 20 mph 999.2mb 46f 48f
10:54am 11 17 mph 999.2mb 46f 48f
10:48am 13 21 mph 999.2mb 46f 48f
10:42am 14 21 mph 999.2mb 46f 48f
10:36am 15 21 mph 999.1mb 46f 48f
10:30am 16 21 mph 999.1mb 46f 48f
10:24am 14 18 mph 999.1mb 46f 48f
10:18am 15 20 mph - 46f 47f
10:12am 16 20 mph - 46f 47f
10:06am 13 18 mph - 46f 47f
10:00am 9 14 mph 999.1mb 46f 47f
9:54am 13 20 mph 999mb 46f 47f
9:48am 13 18 mph 999mb - -
9:42am 13 18 mph 999mb 46f 47f
9:36am 13 18 mph 999mb 46f 47f
9:30am 11 20 mph 999mb 46f 47f
9:24am 14 16 mph 998.9mb 46f 48f
9:18am 15 20 mph 998.9mb 47f 48f
9:12am 15 21 mph 998.9mb 46f 48f
9:06am 16 23 mph 998.9mb 46f 48f
9:00am 16 22 mph 998.8mb 46f 48f
8:54am 14 18 mph 998.7mb 46f 48f
8:48am 13 20 mph 998.6mb - -
8:42am 17 22 mph 998.5mb 46f 47f
8:36am 16 22 mph 998.5mb 46f 47f
8:30am 16 18 mph 998.3mb 46f 47f
8:24am 15 20 mph 998.3mb 47f 47f
8:18am 14 21 mph 998.2mb 47f 47f
8:12am 15 20 mph 998.1mb 47f 47f
8:06am 15 22 mph 998mb 46f 47f
8:00am 15 22 mph 997.9mb 47f 47f
7:54am 15 22 mph 997.9mb 46f 48f
7:48am 17 24 mph 997.8mb 47f 48f
7:42am 17 23 mph 997.7mb 47f 48f
7:36am 18 25 mph 997.6mb 47f 48f
7:30am 16 22 mph 997.6mb 47f 48f
7:24am 14 18 mph 997.6mb 46f 47f
7:18am 15 22 mph 997.6mb - -
7:12am 15 23 mph 997.6mb 47f 48f
7:06am 17 23 mph 997.5mb 47f 48f
7:00am 17 21 mph 997.4mb 47f 48f
6:54am 17 22 mph 997.4mb 47f 48f
6:48am 17 23 mph 997.4mb 47f 48f
6:42am 16 25 mph 997.3mb 47f 47f
6:36am 23 28 mph 997.2mb 47f 47f
6:30am 15 18 mph 997.3mb 47f 48f
6:24am 15 18 mph 997.2mb 47f 48f
6:18am 14 22 mph 997.2mb - -
6:12am 16 22 mph 997.2mb 47f 48f
6:06am 21 25 mph 997.1mb 47f 47f
6:00am 24 29 mph 997mb 47f 47f
5:54am 22 26 mph 996.8mb 47f 47f
5:48am 22 28 mph 996.9mb 47f 47f
5:42am 22 28 mph 996.8mb 47f 48f
5:36am 22 25 mph 996.8mb 47f 48f
5:30am 21 25 mph 996.9mb 47f 48f
5:24am 21 25 mph 996.9mb 47f 47f
5:18am 23 26 mph 996.9mb 47f 47f
5:12am 21 26 mph 996.9mb 47f 47f
5:06am 21 25 mph 996.8mb 47f 48f
5:00am 21 25 mph 996.8mb 46f 48f
4:54am 22 29 mph 996.8mb 46f 48f
4:48am 21 25 mph 996.7mb 46f 48f
4:42am 20 25 mph 996.7mb 46f 48f
4:36am 14 17 mph 996.6mb 46f 47f
4:30am 15 20 mph 996.7mb 46f 47f
4:24am 16 20 mph 996.6mb 46f 47f
4:18am 15 18 mph 996.6mb 46f 47f
4:12am 16 20 mph 996.7mb 46f 47f
4:06am 15 22 mph 996.7mb 46f 47f
4:00am 18 21 mph 996.7mb 46f 47f
3:54am 18 22 mph 996.7mb 46f 47f
3:48am 17 23 mph 996.7mb 46f 47f
3:42am 17 23 mph 996.6mb 46f 47f
3:36am 17 23 mph 996.6mb 46f 48f
3:30am 16 25 mph 996.6mb 46f 48f
3:24am 23 29 mph 996.6mb 46f 47f
3:18am 15 18 mph 996.7mb - -
3:12am 13 16 mph 996.6mb 46f 48f
3:06am 15 17 mph 996.7mb 46f 48f
3:00am 14 16 mph 996.6mb 46f 48f
2:54am 14 17 mph 996.5mb 46f 48f
2:48am 15 20 mph 996.5mb 46f 48f
2:42am 16 29 mph 996.5mb 46f 48f
2:36am 17 21 mph 996.4mb 46f 48f
2:30am 16 20 mph 996.3mb 46f 48f
2:24am 14 17 mph 996.4mb 46f 48f
2:18am 13 16 mph 996.3mb 46f -
2:12am 14 18 mph 996.3mb 46f 47f
2:06am 14 17 mph 996.2mb 46f 48f
2:00am 14 18 mph 996.1mb 46f 48f
1:54am 14 17 mph 996mb 46f 47f
1:48am 14 17 mph 996mb 46f 47f
1:42am 15 18 mph 995.9mb 46f 47f
1:36am 14 17 mph 995.8mb 46f 48f
1:30am 13 15 mph 995.8mb 46f 47f
1:24am 15 20 mph 995.7mb 46f 48f
1:18am 17 21 mph 995.6mb 46f 48f
1:12am 16 20 mph 995.5mb 46f 47f
1:06am 16 18 mph 995.4mb 46f 47f
1:00am 16 18 mph 995.4mb 46f 47f
12:54am 15 22 mph 995.3mb 46f 47f
12:48am 16 22 mph 995.3mb 46f -
12:42am 20 23 mph 995.1mb 46f 48f
12:36am 17 21 mph 995mb 46f 48f
12:30am 16 22 mph 994.9mb 46f 48f
12:24am 11 21 mph 994.9mb 46f 48f
12:18am 16 23 mph 994.8mb 46f 48f
12:12am 20 29 mph 994.6mb 46f 48f
12:06am 20 25 mph 994.4mb 46f 48f
12:00am 15 18 mph 994.5mb 46f 48f
Wed 01/18 11:54pm 16 20 mph 994.5mb 46f 48f
11:48pm 15 20 mph 994.4mb 46f 48f
11:42pm 16 21 mph 994.4mb 46f 48f
11:36pm 14 18 mph 994.4mb 46f 49f
11:30pm 13 18 mph 994.2mb 46f 49f
11:24pm 10 21 mph 994.2mb 46f 49f
11:18pm 14 20 mph 994.1mb 46f 49f
11:12pm 15 20 mph 993.9mb 46f 49f
11:06pm 13 17 mph 993.9mb 46f 49f
11:00pm 11 17 mph 993.8mb 46f 49f
10:54pm 13 15 mph 993.8mb 46f 49f
10:48pm 13 17 mph 993.7mb 46f 47f
10:42pm 11 16 mph 993.5mb 46f 47f
10:36pm 14 20 mph 993.4mb 46f 48f
10:30pm 16 22 mph 993.2mb 46f 48f
10:24pm 18 25 mph 993mb 46f 48f
10:18pm 21 25 mph 992.8mb 46f 47f
10:12pm 18 24 mph 992.8mb 46f 47f
10:06pm 20 26 mph 992.7mb 47f 47f
10:00pm 18 26 mph 992.5mb 46f -
9:54pm 21 24 mph 992.4mb 46f 47f
9:48pm 14 20 mph - - -
9:42pm 14 17 mph 992.4mb - -
9:36pm 15 18 mph 992.5mb - -
9:30pm 17 21 mph 992.3mb 46f 47f
9:24pm 15 18 mph 992.2mb 46f 47f
9:18pm 15 17 mph 992.2mb - -
9:12pm 15 17 mph 992.3mb 46f 46f
9:06pm 14 16 mph 992.2mb 46f 46f
9:00pm 14 17 mph 992.1mb 46f 46f
8:54pm 15 17 mph 992.1mb 46f 46f
8:48pm 15 20 mph 991.9mb 46f 47f
8:42pm 16 18 mph 991.7mb 46f 47f
8:36pm 17 20 mph 991.6mb 46f 47f
8:30pm 16 21 mph 991.7mb 46f 47f
8:24pm 15 20 mph 991.6mb 46f 47f
8:18pm 15 18 mph 991.5mb 46f 47f
8:12pm 14 20 mph 991.3mb 46f 47f
8:06pm 15 18 mph 991.1mb 46f 47f
8:00pm 10 15 mph 991mb 46f 47f
7:54pm 13 18 mph 990.8mb 46f 47f
7:48pm 15 20 mph 990.7mb 46f 47f
7:42pm 10 13 mph 990.6mb 46f 47f
7:36pm 6 9 mph 990.4mb 46f 47f
7:30pm 8 11 mph 990.4mb 46f 47f
7:24pm 9 14 mph 990.2mb 46f 47f
7:18pm 10 14 mph 990.1mb 46f -
7:12pm 7 9 mph 989.9mb 46f 48f
7:06pm 7 9 mph 989.8mb 46f 48f
7:00pm 7 8 mph 989.7mb 46f 48f
6:54pm 7 11 mph 989.5mb 46f 48f
6:48pm 7 10 mph 989.6mb 46f -
6:42pm 8 11 mph 989.6mb 46f 48f
6:36pm 7 10 mph 989.6mb 46f 48f
6:30pm 7 10 mph 989.5mb 46f 48f
6:24pm 8 11 mph 989.5mb 46f 48f
6:18pm 7 9 mph 989.5mb - -
6:12pm 6 10 mph 989.4mb 46f 48f
6:06pm 7 9 mph 989.4mb 46f 48f
6:00pm 7 9 mph 989.4mb 46f 48f
5:54pm 6 8 mph 989.5mb 46f 48f
5:48pm 7 11 mph 989.5mb 46f 49f
5:42pm 8 17 mph 989.5mb 46f 49f
5:36pm 9 11 mph 989.5mb 46f 49f
5:30pm 9 10 mph 989.2mb 46f 49f
5:24pm 3 11 mph 989mb 46f 49f
5:18pm 9 14 mph 989.3mb 46f 49f
5:12pm 9 16 mph 989.3mb 46f 49f
5:06pm 11 15 mph 989.3mb 46f 49f
5:00pm 10 13 mph 989.5mb 46f 49f
4:54pm 10 11 mph 989.6mb 46f 49f
4:48pm 9 10 mph 989.7mb 46f 49f
4:42pm 9 10 mph 989.8mb 46f 49f
4:36pm 10 11 mph 989.8mb 46f 49f
4:30pm 10 14 mph 989.8mb 46f 49f
4:24pm 10 13 mph 989.8mb 46f 49f
4:18pm 11 14 mph 989.9mb 46f 49f
4:12pm 10 13 mph 990mb 46f 49f
4:06pm 10 14 mph 990.1mb 46f 49f
4:00pm 11 15 mph 990.2mb 46f 49f
3:54pm 13 17 mph 990.4mb 46f 49f
3:48pm 14 18 mph 990.4mb 46f 50f
3:42pm 15 20 mph 990.5mb 46f 50f
3:36pm 16 18 mph 990.5mb 46f 50f
3:30pm 14 18 mph 990.5mb 46f 50f
3:24pm 14 17 mph 990.6mb 46f 50f
3:18pm 14 18 mph 990.7mb 46f -
3:12pm 13 15 mph 990.9mb 46f 49f
3:06pm 13 14 mph 991mb 46f 49f
3:00pm 13 15 mph 991.1mb 46f 49f
2:54pm 13 17 mph 991.1mb 46f 49f
2:48pm 15 20 mph 991.2mb 46f 49f
2:42pm 18 22 mph 991.2mb 46f 50f
2:36pm 18 20 mph 991.3mb 46f 49f
2:30pm 17 21 mph 991.2mb 46f 49f
2:24pm 15 16 mph 991.3mb 46f 49f
2:18pm 15 18 mph 991.2mb 46f -
2:12pm 16 20 mph 991.5mb 46f 49f
2:06pm 16 20 mph 991.8mb 46f 49f
2:00pm 14 18 mph 991.7mb 46f 49f
1:54pm 15 20 mph 991.8mb 46f 49f
1:48pm 14 20 mph 992mb 46f -
1:42pm 15 21 mph 992.1mb 46f 49f
1:36pm 14 24 mph 992.2mb 46f 49f
1:30pm 18 24 mph 992.2mb 46f 49f
1:24pm 20 25 mph 992.1mb 46f 49f
1:18pm 22 30 mph 992.2mb 46f 50f
1:12pm 24 30 mph 992.3mb 46f 50f
1:06pm 24 32 mph 992mb 46f 50f
1:00pm 22 26 mph 992.2mb 46f 50f
12:54pm 22 26 mph 992.2mb 46f 50f
12:48pm 21 28 mph 992.3mb 46f -
12:42pm 24 30 mph 992.4mb 46f 50f
12:36pm 24 30 mph 992.2mb 46f 50f
12:30pm 24 30 mph 992.3mb 46f 50f
12:24pm 24 32 mph 992.4mb 46f 50f
12:18pm 25 31 mph 992.3mb 46f -
12:12pm 25 30 mph 992.5mb 46f 51f
12:06pm 25 31 mph 992.4mb 46f 51f
12:00pm 26 31 mph 992.4mb 46f 51f
11:54am 23 30 mph 992.3mb 46f 51f
11:48am 24 29 mph 992.3mb 46f 51f
11:42am 23 28 mph 992.3mb 46f 51f
11:36am 24 29 mph 992.4mb 46f 51f
11:30am 24 31 mph 992.6mb 46f 51f
11:24am 24 31 mph 992.6mb 46f 51f
11:18am 26 32 mph - - -
11:12am 25 32 mph 992.8mb 46f 51f
11:06am 26 33 mph 992.7mb 46f 51f
11:00am 28 32 mph 992.8mb 46f 51f
10:54am 24 31 mph 992.8mb 46f 51f
10:48am 25 32 mph 992.7mb 46f -
10:42am 26 32 mph 992.6mb 46f 51f
10:36am 25 33 mph 992.6mb 46f 51f
10:30am 28 34 mph 992.7mb 46f 51f
10:24am 25 29 mph 992.7mb 46f 50f
10:18am 25 29 mph 992.6mb 46f 51f
10:12am 24 30 mph 992.5mb 46f 51f
10:06am 25 33 mph 992.5mb 46f 51f
10:00am 24 30 mph 992.6mb 46f 51f
9:54am 25 33 mph 992.6mb 46f 51f
9:48am 25 31 mph - - -
9:42am 24 32 mph 992.5mb 46f 51f
9:36am 24 30 mph 992.5mb 46f 51f
9:30am 28 32 mph 992.5mb 46f 51f
9:24am 28 34 mph 992.6mb 46f 51f
9:18am 26 34 mph 992.5mb 46f -
9:12am 29 36 mph 992.3mb 46f 51f
9:06am 29 36 mph 992.3mb 46f 51f
9:00am 29 37 mph 992.2mb 46f 51f
8:54am 29 36 mph 992.1mb 46f 51f
8:48am 26 37 mph - - -
8:42am 30 36 mph 992.1mb 46f 51f
8:36am 28 34 mph 992.1mb 46f 51f
8:30am 26 32 mph 992.2mb 46f 51f
8:24am 28 33 mph 992.2mb 46f 51f
8:18am 26 37 mph - - -
8:12am 28 39 mph 992.1mb 46f 52f
8:06am 30 40 mph 992.1mb 46f 52f
8:00am 25 38 mph 992.1mb 46f 52f
7:54am 28 34 mph 992.1mb 46f 52f
7:48am 30 38 mph 992.1mb - -
7:42am 29 40 mph 991.9mb 46f 52f
7:36am 29 40 mph 991.8mb 46f 51f
7:30am 29 37 mph 991.9mb 46f 51f
7:24am 31 43 mph 991.8mb 46f 51f
7:18am 36 45 mph 991.6mb 46f 52f
7:12am 34 45 mph 991.5mb 46f 52f
7:06am 32 44 mph 991.5mb 46f 51f
7:00am 32 45 mph - - -
6:54am 33 44 mph 991.4mb 46f 52f
6:48am 33 45 mph 991.3mb 46f 51f
6:42am 30 38 mph 991.2mb 46f 51f
6:36am 29 41 mph 991.5mb 46f 51f
6:30am 29 43 mph 991.5mb 46f 51f
6:24am 26 43 mph 991.4mb 46f 51f
6:18am 36 44 mph 991mb 46f 51f
6:12am 30 38 mph 991mb 46f 51f
6:06am 26 34 mph 991.1mb 46f 51f
6:00am 30 43 mph 991.4mb 46f 51f
5:54am 30 41 mph 991.3mb 46f 52f
5:48am 30 39 mph 991.4mb 46f 52f
5:42am 32 44 mph 991.6mb 46f 52f
5:36am 32 45 mph 991.7mb 46f 52f
5:30am 34 45 mph 991.9mb 46f 52f
5:24am 33 41 mph 992mb 46f 52f
5:18am 33 43 mph 992.3mb - -
5:12am 31 41 mph 992.4mb 46f 52f
5:06am 32 46 mph 992.6mb 45f 52f
5:00am 30 41 mph 992.7mb 45f 51f
4:54am 33 39 mph 992.8mb 45f 51f
4:48am 31 39 mph 993mb 45f 51f
4:42am 30 38 mph 993.2mb 45f 51f
4:36am 30 45 mph 993.3mb 45f 51f
4:30am 32 44 mph 993.4mb 45f 52f
4:24am 30 40 mph 993.5mb 45f 51f
4:18am 33 41 mph 993.5mb 45f 51f
4:12am 30 36 mph 993.7mb 45f 51f
4:06am 28 38 mph 993.8mb 45f 51f
4:00am 28 37 mph 993.7mb 45f 51f
3:54am 26 36 mph 993.7mb 45f 51f
3:48am 26 34 mph 993.8mb - -
3:42am 29 34 mph 994mb 45f 50f
3:36am 29 36 mph 994.1mb 45f 50f
3:30am 25 30 mph 994.3mb 45f 50f
3:24am 26 36 mph 994.4mb 45f 50f
3:18am 30 37 mph 994.5mb 45f 50f
3:12am 23 28 mph 994.6mb 45f 50f
3:06am 24 29 mph 994.8mb 45f 50f
3:00am 22 25 mph 994.9mb 45f 49f
2:54am 21 24 mph 995.1mb 45f 49f
2:48am 21 24 mph 995.3mb 45f 49f
2:42am 20 23 mph 995.4mb 45f 49f
2:36am 18 23 mph 995.6mb 45f 49f
2:30am 18 25 mph 995.7mb 45f 49f
2:24am 21 24 mph 995.8mb 45f 49f
2:18am 21 30 mph 995.9mb 45f 50f
2:12am 22 28 mph 995.9mb 45f 50f
2:06am 22 30 mph 996mb 45f 50f
2:00am 22 28 mph 996.1mb 45f 50f
1:54am 21 32 mph 996.2mb 45f 50f
1:48am 22 31 mph 996.3mb 45f 50f
1:42am 24 30 mph 996.3mb 45f 50f
1:36am 23 28 mph 996.3mb 45f 50f
1:30am 22 28 mph 996.4mb 45f 50f
1:24am 25 32 mph 996.6mb 45f 50f
1:18am 25 32 mph 996.6mb - -
1:12am 24 34 mph 996.6mb 45f 50f
1:06am 28 34 mph 996.4mb 45f 50f
1:00am 25 31 mph 996.4mb 45f 50f
12:54am 26 31 mph 996.8mb 45f 50f
12:48am 26 33 mph 996.8mb 45f 50f
12:42am 28 36 mph 996.7mb 45f 50f
12:36am 29 33 mph 996.5mb 45f 50f
12:30am 26 34 mph 996.9mb 45f 50f
12:24am 29 37 mph 997.1mb 45f 50f
12:18am 28 34 mph 996.9mb 45f 50f
12:12am 26 37 mph 997.2mb 45f 50f
12:06am 30 37 mph 997.1mb 45f 50f
12:00am 28 34 mph 997.4mb 45f 50f
Tue 01/17 11:54pm 29 36 mph 997.4mb 45f 50f
11:48pm 26 32 mph - - -
11:42pm 28 40 mph 997.6mb 45f 50f
11:36pm 31 41 mph 997.4mb 45f 51f
11:30pm 34 40 mph 996.9mb 45f 50f
11:24pm 36 40 mph 997.2mb 45f 50f
11:18pm 31 40 mph 997.4mb 45f 51f
11:12pm 30 39 mph 997.5mb 45f 50f
11:06pm 30 38 mph 997.6mb 45f 50f
11:00pm 30 38 mph 997.8mb 45f 50f
10:54pm 30 39 mph 997.8mb 45f 50f
10:48pm 30 37 mph 997.7mb 45f 50f
10:42pm 32 43 mph 997.5mb 45f 50f
10:36pm 30 38 mph 997.4mb 45f 50f
10:30pm 32 38 mph 997.3mb 45f 50f
10:24pm 29 44 mph 997.6mb 45f 50f
10:18pm 30 39 mph - - -
10:12pm 30 39 mph 997.7mb 45f 50f
10:06pm 30 43 mph 997.6mb 45f 50f
9:54pm 33 41 mph 997.4mb 45f 49f
9:48pm 33 39 mph 997.7mb 45f 50f
9:42pm 31 40 mph 997.9mb 45f 49f
9:36pm 33 38 mph 997.9mb 45f 50f
9:30pm 34 47 mph 998mb 45f 50f
9:24pm 33 40 mph 998.1mb 45f 50f
9:18pm 33 41 mph 997.9mb 45f 50f
9:12pm 30 38 mph 998mb 45f 50f
9:06pm 31 37 mph 998mb 45f 49f
9:00pm 33 38 mph 998.1mb 46f 50f
8:54pm 30 39 mph 998.1mb 46f 50f
8:48pm 29 37 mph - - -
8:42pm 28 39 mph 998.3mb 45f 49f
8:36pm 28 39 mph 998.2mb 45f 49f
8:30pm 28 33 mph 998.2mb 45f 49f
8:24pm 29 34 mph 998.1mb 45f 49f
8:18pm 28 46 mph 998.1mb 45f 49f
8:12pm 31 36 mph 998mb 45f 49f
8:06pm 29 37 mph 998mb 45f 49f
8:00pm 30 38 mph 998.1mb 45f 49f
7:54pm 28 37 mph 998.1mb 45f 49f
7:48pm 30 40 mph 998mb 45f 50f
7:42pm 32 40 mph 998.1mb 46f 50f
7:36pm 30 39 mph 997.9mb 45f 50f
7:30pm 30 47 mph 997.9mb 45f 50f
7:24pm 31 41 mph 997.8mb 45f 50f
7:18pm 36 45 mph 997.7mb 46f -
7:12pm 33 45 mph 997.7mb 46f 50f
7:06pm 33 49 mph 997.7mb 45f 50f
7:00pm 34 43 mph 997.6mb 45f 50f
6:54pm 34 48 mph 997.6mb 45f 50f
6:48pm 37 45 mph 997.6mb - -
6:42pm 37 48 mph 997.4mb 45f 50f
6:36pm 39 45 mph 997.5mb 45f 50f
6:30pm 36 48 mph 997.5mb 45f 50f
6:24pm 38 48 mph 997.6mb 45f 50f
6:18pm 38 47 mph 997.6mb 45f 50f
6:12pm 36 45 mph 997.7mb 45f 50f
6:06pm 32 45 mph 997.7mb 45f 50f
6:00pm 36 47 mph 997.8mb 45f 49f
5:54pm 33 45 mph 997.9mb 45f 49f
5:48pm 37 44 mph 997.9mb 45f -
5:42pm 38 48 mph 998mb 45f 49f
5:36pm 34 41 mph 998mb 45f 50f
5:30pm 32 45 mph 998.1mb 45f 49f
5:24pm 36 44 mph 998.1mb 45f 50f
5:18pm 32 43 mph 998.3mb 45f 49f
5:12pm 34 51 mph 998.3mb 45f 50f
5:06pm 33 44 mph 998.3mb 45f 49f
5:00pm 33 44 mph 998.4mb 45f 49f
4:54pm 33 46 mph 998.4mb 45f 49f
4:48pm 34 44 mph 998.4mb 45f 49f
4:42pm 32 41 mph 998.4mb 45f 49f
4:36pm 31 45 mph 998.4mb 45f 49f
4:30pm 33 40 mph 998.4mb 45f 49f
4:24pm 31 37 mph 998.4mb 45f 49f
4:18pm 28 40 mph 998.6mb 45f -
4:12pm 31 39 mph 998.6mb 45f 48f
4:06pm 32 40 mph 998.8mb 45f 48f
4:00pm 31 43 mph 998.8mb 45f 48f
3:54pm 32 38 mph 998.9mb 45f 48f
3:48pm 32 45 mph 998.8mb 45f -
3:42pm 31 38 mph 998.9mb 45f 49f
3:36pm 33 40 mph 999mb 45f 48f
3:30pm 24 37 mph 999.2mb 45f 48f
3:24pm 28 36 mph 999.1mb 45f 48f
3:18pm 29 40 mph 999.2mb 45f -
3:12pm 33 41 mph 999.1mb 45f 48f
3:06pm 32 39 mph 999.2mb 45f 48f
3:00pm 31 37 mph 999.3mb 45f 48f
2:54pm 29 36 mph 999.3mb 45f 48f
2:48pm 28 36 mph 999.5mb 45f 48f
2:42pm 28 37 mph 999.7mb 45f 48f
2:36pm 25 30 mph 999.7mb 45f 48f
2:30pm 24 30 mph 999.9mb 45f 48f
2:24pm 25 29 mph 1000.1mb 45f 48f
2:18pm 24 31 mph 1000.3mb 45f -
2:12pm 24 30 mph 1000.6mb 44f 49f
2:06pm 17 23 mph 1000.9mb 44f 48f
2:00pm 20 23 mph 1000.8mb 45f 48f
1:54pm 18 22 mph 1000.8mb 44f 48f
1:48pm 16 21 mph 1000.9mb - -
1:42pm 16 28 mph 1001.2mb 45f 48f
1:36pm 20 26 mph 1001.4mb 44f 48f
1:30pm 25 30 mph 1001.3mb 44f 49f
1:24pm 23 34 mph 1001.5mb 45f 49f
1:18pm 22 30 mph 1001.6mb 45f 48f
1:12pm 24 33 mph 1001.8mb 45f 48f
1:06pm 24 31 mph 1002.2mb 45f 48f
1:00pm 22 31 mph 1002.6mb 45f 47f
12:54pm 28 32 mph 1003.1mb 45f 48f
12:48pm 28 37 mph 1003.4mb 45f -
12:42pm 22 28 mph 1003.5mb 45f 49f
12:36pm 21 25 mph 1003.6mb 44f 49f
12:30pm 20 22 mph 1003.8mb 44f 49f
12:24pm 18 24 mph 1004.1mb 44f 49f
12:18pm 20 24 mph 1004.3mb 44f -
12:12pm 21 28 mph 1004.5mb 44f 49f
12:06pm 21 30 mph 1004.4mb 44f 49f
12:00pm 22 28 mph 1004.7mb 44f 50f
11:54am 21 24 mph 1004.7mb 44f 49f
11:48am 18 29 mph 1005mb 44f 49f
11:42am 20 26 mph 1005mb 44f 49f
11:36am 22 26 mph 1005.1mb 44f 49f
11:30am 22 29 mph 1005.1mb 44f 49f
11:24am 23 28 mph 1005.2mb 45f 49f
11:18am 21 26 mph 1005.4mb - -
11:12am 23 28 mph 1005.8mb 45f 49f
11:06am 20 24 mph 1005.8mb 45f 49f
11:00am 17 23 mph 1005.7mb 45f 49f
10:54am 17 25 mph 1005.6mb 45f 49f
10:48am 17 23 mph 1005.6mb 45f -
10:42am 18 26 mph 1005.6mb 45f 49f
10:36am 22 29 mph 1005.7mb 45f 49f
10:30am 23 31 mph 1005.7mb 45f 49f
10:24am 22 30 mph 1006.3mb 45f 49f
10:18am 21 25 mph 1006.3mb 45f 49f
10:12am 22 29 mph 1006.4mb 45f 49f
10:06am 22 29 mph 1006.5mb 44f 49f
10:00am 23 26 mph 1006.4mb 44f 50f
9:54am 24 29 mph 1006.4mb 45f 50f
9:48am 22 30 mph 1006.2mb - -
9:42am 23 34 mph 1006.1mb 45f 50f
9:36am 22 30 mph 1006.2mb 45f 49f
9:30am 23 26 mph 1006.2mb 45f 50f
9:24am 23 30 mph 1006.3mb 45f 49f
9:18am 21 25 mph 1006.3mb 44f 49f
9:12am 23 28 mph 1006.2mb 44f 49f
9:06am 23 28 mph 1006.4mb 44f 50f
9:00am 22 25 mph 1006.2mb 45f 49f
8:54am 20 23 mph 1006.1mb 45f 49f
8:48am 17 22 mph 1006.3mb 44f -
8:42am 20 23 mph 1006.2mb 45f 49f
8:36am 16 22 mph 1006.2mb 44f 49f
8:30am 18 23 mph 1006.3mb 45f 49f
8:24am 18 23 mph 1006.3mb 45f 49f
8:18am 20 24 mph 1006.3mb - -
8:12am 17 22 mph 1006.3mb 44f 49f
8:06am 18 23 mph 1006.2mb 44f 49f
8:00am 20 25 mph 1006.2mb 45f 49f
7:54am 20 23 mph 1006.4mb 45f 49f
7:48am 18 22 mph 1006.3mb - -
7:42am 17 21 mph 1006.2mb 45f 49f
7:36am 20 25 mph 1006.1mb 44f 49f
7:30am 22 26 mph 1006mb 44f 50f
7:24am 20 25 mph 1006.1mb 45f 50f
7:18am 18 23 mph 1006.1mb 45f -
7:12am 17 23 mph 1006.1mb 45f 50f
7:06am 17 24 mph 1006.2mb 45f 50f
7:00am 21 26 mph 1006.3mb 45f 50f
6:54am 20 23 mph 1006.4mb 45f 49f
6:48am 17 20 mph 1006.5mb 45f 49f
6:42am 17 21 mph 1006.7mb 45f 50f
6:36am 17 20 mph 1006.7mb 45f 50f
6:30am 17 20 mph 1006.7mb 45f 50f
6:24am 16 21 mph 1006.8mb 45f 49f
6:18am 16 22 mph 1006.9mb 45f 49f
6:12am 17 23 mph 1007mb 45f 49f
6:06am 20 24 mph 1007.1mb 45f 49f
6:00am 20 24 mph 1007.1mb 45f 49f
5:54am 17 24 mph 1007.1mb 45f 49f
5:48am 18 22 mph 1007.3mb - -
5:42am 18 22 mph 1007.3mb 45f 49f
5:36am 20 23 mph 1007.3mb 45f 49f
5:30am 18 23 mph 1007.6mb 45f 49f
5:24am 16 21 mph 1007.9mb 45f 48f
5:18am 15 18 mph 1008.2mb - -
5:12am 13 15 mph 1008.4mb 45f 47f
5:06am 14 16 mph 1008.6mb 45f 47f
5:00am 14 17 mph 1008.6mb 45f 47f
4:54am 14 15 mph 1008.6mb 45f 47f
4:48am 13 17 mph 1008.9mb 45f -
4:42am 17 20 mph 1009.3mb 45f 47f
4:36am 11 20 mph 1009.3mb 45f 48f
4:30am 15 17 mph 1009.4mb 45f 49f
4:24am 14 17 mph 1009.5mb 45f 49f
4:18am 15 21 mph 1009.3mb 45f -
4:12am 17 25 mph 1009.2mb 45f 50f
4:06am 18 25 mph 1008.9mb 45f 51f
4:00am 20 26 mph 1009mb 45f 51f
3:54am 22 28 mph 1008.8mb 45f 51f
3:48am 24 31 mph 1008.7mb - -
3:42am 23 29 mph 1009mb 45f 51f
3:36am 22 28 mph 1009.3mb 45f 51f
3:30am 22 26 mph 1009.5mb 45f 51f
3:24am 22 25 mph 1009.8mb 45f 51f
3:18am 21 24 mph 1010mb 45f -
3:12am 22 26 mph 1010.1mb 45f 50f
3:06am 20 24 mph 1010.5mb 45f 50f
3:00am 18 22 mph 1010.6mb 45f 50f
2:54am 17 21 mph 1010.8mb 44f 50f
2:48am 17 21 mph 1011mb - -
2:42am 16 18 mph 1011.3mb 44f 50f
2:36am 16 21 mph 1011.4mb 44f 50f
2:30am 16 17 mph 1011.7mb 44f 50f
2:24am 14 16 mph 1011.8mb 44f 49f
2:18am 11 14 mph - - -
2:12am 10 14 mph 1012mb 44f 48f
2:06am 9 11 mph 1011.9mb 44f 47f
2:00am 10 13 mph 1012mb 44f 47f
1:54am 10 11 mph 1012.1mb 44f 48f
1:48am 10 13 mph 1012.1mb 44f -
1:42am 6 7 mph 1012.2mb 44f 47f
1:36am 6 8 mph 1012.2mb 44f 48f
1:30am 3 6 mph 1012.3mb 44f 48f
1:24am 2 7 mph 1012.1mb 44f 48f
1:18am 5 7 mph 1012mb - -
1:12am 6 8 mph 1011.9mb 44f 49f
1:06am 5 7 mph 1011.7mb 44f 49f
1:00am 7
mph
1011.8mb 44f 49f
12:54am 6 7 mph 1011.8mb 44f 49f
12:48am 6 7 mph 1011.7mb 44f -
12:42am 5 6 mph 1011.7mb 44f 47f
12:36am 6 8 mph 1011.7mb 44f 47f
12:30am 6 9 mph 1011.9mb 44f 47f
12:24am 7 9 mph 1011.8mb 43f 47f
12:18am 7 8 mph 1011.8mb - -
12:12am 6 7 mph 1012mb 43f 47f
12:06am 6 9 mph 1012mb 43f 47f
12:00am 7 8 mph 1012mb 43f 47f
Mon 01/16 11:54pm 5 7 mph 1012.2mb 44f 47f
11:48pm 2 3 mph 1012.4mb 43f -
11:42pm 2 3 mph 1012.5mb 43f 46f
11:36pm 2 6 mph 1012.5mb 43f 46f
11:30pm 3 6 mph 1012.6mb 43f 46f
11:24pm 5 6 mph 1012.5mb 43f 46f
11:18pm 6 8 mph 1012.4mb 43f 46f
11:12pm 6 7 mph 1012.4mb 43f 46f
11:06pm 7 8 mph 1012.5mb 43f 46f
11:00pm 3 5 mph 1012.8mb 43f 46f
10:54pm 1 3 mph 1013mb 43f 46f
10:48pm 2 3 mph 1012.9mb 43f 46f
10:42pm 1 2 mph 1012.9mb - -
10:36pm  -  3 mph 1013.1mb - -
10:30pm 3 5 mph 1013mb 43f 46f
10:24pm 3 7 mph 1013mb 44f 46f
10:18pm 6 8 mph 1012.8mb 44f 46f
10:12pm 6 7 mph 1012.9mb 44f 46f
10:06pm 7 8 mph 1013mb 44f 46f
10:00pm 7 8 mph - - -
9:54pm 7 8 mph 1013mb 44f 45f
9:48pm 8 10 mph 1013.1mb 44f 46f
9:42pm 8 9 mph - - -
9:36pm 7 8 mph - - -
9:30pm 7 8 mph 1013.5mb 44f 46f
9:24pm 6 8 mph 1013.6mb 44f 46f
9:18pm 7 8 mph 1013.7mb 44f -
9:12pm 6 8 mph 1013.9mb 44f 46f
9:06pm 7 8 mph 1013.8mb 45f 47f
9:00pm 6 8 mph 1014mb 44f 46f
8:54pm 7 8 mph 1014.1mb 44f 46f
8:48pm 7 8 mph 1014.1mb 44f 46f
8:42pm 6 7 mph 1014.2mb 44f 47f
8:36pm 6
mph
1014.4mb 44f 46f
8:30pm 6 7 mph 1014.5mb 44f 47f
8:24pm 5 6 mph 1014.6mb 44f 47f
8:18pm 5
mph
- - -
8:12pm 3
mph
1014.6mb 44f 46f
8:06pm  -  3 mph 1014.7mb 44f 46f
8:00pm  -  1 mph 1014.8mb 44f 46f
7:54pm  -  2 mph 1014.8mb 44f 46f
7:48pm 1 2 mph - - -
7:42pm  -  2 mph 1014.8mb 44f 46f
7:36pm  -  1 mph 1014.9mb 44f 46f
7:30pm 1 3 mph 1014.8mb 44f 46f
7:24pm 2 3 mph 1014.7mb 44f 46f
7:18pm 1 2 mph 1014.9mb 45f -
7:12pm  -  2 mph 1015mb 45f 46f
7:06pm 1 2 mph 1015.1mb 45f 46f
7:00pm  -  mph 1015.3mb 44f 46f
6:54pm  -  1 mph 1015.3mb 44f 46f
6:48pm 1 2 mph 1015.1mb 44f 46f
6:42pm 2 3 mph 1015.2mb 44f 46f
6:36pm 2 3 mph 1015.3mb 45f 46f
6:30pm 2 3 mph 1015.5mb 45f 46f
6:24pm 3 5 mph 1015.7mb 45f 46f
6:18pm 2 3 mph 1015.8mb 45f -
6:12pm 2 3 mph 1015.9mb 45f 46f
6:06pm 2 5 mph 1015.8mb 45f 46f
6:00pm 5 6 mph 1015.6mb 45f 46f
5:54pm 6 7 mph 1015.7mb 45f 46f
5:48pm 7 10 mph 1015.8mb 45f 46f
5:42pm 9 10 mph 1015.8mb 45f 46f
5:36pm 8 9 mph 1015.9mb 45f 46f
5:30pm 6 9 mph 1015.9mb 45f 46f
5:24pm 8 11 mph 1016.1mb 45f 46f
5:18pm 10 13 mph - - -
5:12pm 10 13 mph 1016.1mb 45f 46f
5:06pm 7 10 mph 1016.2mb 44f 46f
5:00pm 7 9 mph 1016.1mb 45f 47f
4:54pm 5 7 mph 1016mb 45f 48f
4:48pm 3
mph
1016mb 45f 48f
4:42pm 1 5 mph 1015.9mb 45f 48f
4:36pm 2 6 mph 1015.9mb 45f 48f
4:30pm 1 2 mph 1015.7mb 46f 48f
4:24pm 2 5 mph 1015.5mb 46f 49f
4:18pm 1 2 mph 1015.4mb - -
4:12pm  -  2 mph 1015.7mb 46f 49f
4:06pm 2
mph
1015.7mb 46f 49f
4:00pm 1 2 mph 1016mb 46f 49f
3:54pm 1 2 mph 1016.2mb 46f 49f
3:48pm 1 3 mph 1016.2mb 46f -
3:42pm 1 2 mph 1016.2mb 46f 48f
3:36pm 1
mph
1016.4mb 46f 48f
3:30pm  -  1 mph 1016.4mb 46f 48f
3:24pm  -  3 mph 1016.5mb 46f 48f
3:18pm 2
mph
1016.6mb 45f 48f
3:12pm  -  2 mph 1016.6mb 45f 48f
3:06pm 2 6 mph 1016.6mb 45f 47f
3:00pm 5 7 mph 1016.5mb 45f 47f
2:54pm 7 10 mph 1016.3mb 45f 47f
2:48pm 9 10 mph 1016.1mb 45f -
2:42pm 6
mph
1016.4mb 45f 46f
2:36pm 5 8 mph 1016.7mb 45f 46f
2:30pm 7 9 mph 1016.6mb 45f 46f
2:24pm 8
mph
1016.6mb 45f 45f
2:18pm 7 8 mph 1016.7mb 45f 44f
2:12pm 6 8 mph 1016.9mb 45f 46f
2:06pm 8 10 mph 1016.9mb 45f 46f
2:00pm 10 11 mph 1016.9mb 44f 46f
1:54pm 10 13 mph 1017mb 44f 46f
1:48pm 10 11 mph 1017.2mb 44f 45f
1:42pm 7
mph
1018mb 44f 45f
1:36pm 6 7 mph 1018.2mb 44f 45f
1:30pm 5
mph
1018.3mb 44f 46f
1:24pm 5 6 mph 1018.5mb 44f 45f
1:18pm 3 5 mph 1018.5mb - -
1:12pm 3 5 mph 1018.6mb 44f 46f
1:06pm 3
mph
1018.6mb 44f 46f
1:00pm 2 3 mph 1018.7mb 44f 46f
12:54pm 1 3 mph 1019mb 44f 45f
12:48pm 2 3 mph 1019.2mb 43f 45f
12:42pm 2
mph
1019.1mb 43f 45f
12:36pm 2
mph
1018.7mb 43f 44f
12:30pm 2 3 mph 1018.9mb 43f 44f
12:24pm 3 5 mph 1018.9mb 43f 44f
12:18pm 3 8 mph 1018.8mb - -
12:12pm 8 9 mph 1018.6mb 43f 42f
12:06pm 7 9 mph 1018.7mb 43f 42f
12:00pm 8 10 mph 1018.7mb 43f 42f
11:54am 9 10 mph 1018.8mb 43f 42f
11:48am 9 10 mph - - -
11:42am 8 10 mph 1019.1mb 42f 42f
11:36am 8 9 mph 1019.2mb 42f 42f
11:30am 8 9 mph 1019.4mb 42f 42f
11:24am 9 11 mph 1019.5mb 42f 41f
11:18am 9 11 mph 1019.6mb 42f 41f
11:12am 10 13 mph 1019.7mb 42f 40f
11:06am 11 14 mph 1019.8mb 41f 39f
11:00am 13 16 mph 1019.7mb 41f 39f
10:54am 11 14 mph 1020mb 41f 39f
10:48am 11 13 mph 1020.2mb - -
10:42am 11 13 mph 1020.3mb 41f 38f
10:36am 10 13 mph 1020.5mb 41f 38f
10:30am 10 13 mph 1020.6mb 41f 37f
10:24am 10 11 mph 1020.7mb 41f 37f
10:18am 8 10 mph 1021mb - -
10:12am 9 13 mph 1020.9mb 41f 38f
10:06am 10 14 mph 1020.9mb 42f 37f
10:00am 13 14 mph 1020.8mb 42f 37f
9:54am 11 13 mph 1020.9mb 42f 37f
9:48am 11 13 mph 1020.9mb 42f -
9:42am 10 13 mph 1021mb 42f 37f
9:36am 11 14 mph 1020.9mb 42f 37f
9:30am 11 14 mph 1020.8mb 43f 37f
9:24am 11 13 mph 1020.8mb 43f 36f
9:18am 9 10 mph - - -
9:12am 8 9 mph 1021.1mb 43f 37f
9:06am 7 8 mph 1021.1mb 43f 37f
9:00am 5 7 mph 1021.3mb 42f 38f
8:54am 7 9 mph 1021.2mb 42f 37f
8:48am 9 11 mph - - -
8:42am 11 14 mph 1020.9mb 43f 37f
8:36am 11 14 mph 1020.8mb 43f 37f
8:30am 10 14 mph 1020.8mb 43f 37f
8:24am 10 11 mph 1020.7mb 43f 38f
8:18am 8 13 mph 1021mb 43f 37f
8:12am 9 11 mph 1020.9mb 43f 37f
8:06am 11 13 mph 1020.8mb 43f 37f
8:00am 10 11 mph 1020.9mb 43f 37f
7:54am 9 11 mph 1020.9mb 43f 36f
7:48am 9 13 mph - - -
7:42am 11 16 mph 1020.9mb 43f 37f
7:36am 13 15 mph 1020.8mb 44f 37f
7:30am 11 14 mph 1020.7mb 43f 37f
7:24am 9 14 mph 1020.8mb 44f 36f
7:18am 11 14 mph 1020.8mb 43f -
7:12am 11 17 mph 1020.9mb 43f 36f
7:06am 15 17 mph 1020.8mb 43f 36f
7:00am 14 17 mph 1020.9mb 44f 36f
6:54am 16 17 mph 1021.1mb 44f 37f
6:48am 17 18 mph - - -
6:42am 14 17 mph 1021.2mb 44f 38f
6:36am 15 16 mph 1021mb 44f 38f
6:30am 14 15 mph 1021.2mb 43f 38f
6:24am 11 14 mph 1021.6mb 44f 38f
6:18am 14 15 mph - - -
6:12am 13 16 mph 1021.7mb 45f 38f
6:06am 15 17 mph 1021.8mb 43f 38f
6:00am 14 15 mph 1021.9mb 44f 37f
5:54am 13 15 mph 1022.1mb 43f 37f
5:48am 15 16 mph 1022.1mb 44f 38f
5:42am 11 15 mph 1022.1mb 44f 38f
5:36am 15 16 mph 1022.1mb 44f 37f
5:30am 14 16 mph 1022.2mb 44f 37f
5:24am 14 15 mph 1022.2mb 45f 37f
5:18am 13 14 mph 1022.3mb - -
5:12am 13 14 mph 1022.4mb 45f 38f
5:06am 11 14 mph 1022.5mb 46f 38f
5:00am 11 13 mph 1022.6mb 46f 38f
4:54am 11 13 mph 1022.8mb 46f 38f
4:48am 10 11 mph 1023mb 46f 37f
4:42am 10 11 mph 1023.1mb 45f 37f
4:36am 9 13 mph 1023.2mb 45f 37f
4:30am 11 13 mph 1023.2mb 46f 37f
4:24am 10 11 mph 1023.3mb 46f 37f
4:18am 10 13 mph 1023.4mb - -
4:12am 10 13 mph 1023.4mb 45f 37f
4:06am 11 13 mph 1023.3mb 45f 37f
4:00am 11 13 mph 1023.3mb 46f 37f
3:54am 10 11 mph 1023.4mb 46f 37f
3:48am 9 10 mph 1023.4mb 46f 38f
3:42am 8 9 mph 1023.7mb 46f 38f
3:36am 8 9 mph 1023.7mb 45f 38f
3:30am 8 10 mph 1023.7mb 45f 38f
3:24am 9 10 mph 1023.5mb 45f 38f
3:18am 9 11 mph 1023.5mb 45f 38f
3:12am 9 11 mph 1023.6mb 45f 38f
3:06am 10 13 mph 1023.5mb 45f 38f
3:00am 11 13 mph 1023.3mb 45f 38f
2:54am 10 11 mph 1023.3mb 45f 38f
2:48am 9 10 mph 1023.5mb 45f -
2:42am 8 9 mph 1023.7mb 45f 38f
2:36am 8
mph
1023.8mb 45f 38f
2:30am 7 10 mph 1023.9mb 45f 38f
2:24am 9 11 mph 1023.7mb 45f 38f
2:18am 10 11 mph 1023.6mb - -
2:12am 10 11 mph 1023.6mb 44f 38f
2:06am 11 14 mph 1023.6mb 44f 38f
2:00am 11 14 mph 1023.5mb 44f 38f
1:54am 8 11 mph 1023.7mb 44f 38f
1:48am 10 11 mph 1023.6mb 44f 39f
1:42am 8 9 mph 1023.7mb 44f 39f
1:36am 8 10 mph 1023.9mb 43f 39f
1:30am 9 13 mph 1023.6mb 43f 38f
1:24am 11 13 mph 1023.3mb 43f 39f
1:18am 6
mph
- - -
1:12am 6 8 mph 1023.6mb 43f 41f
1:06am 7 9 mph 1023.6mb 43f 41f
1:00am 9
mph
1023.6mb 43f 41f
12:54am 9 10 mph 1023.7mb 42f 40f
12:48am 6 7 mph 1023.9mb 42f 39f
12:42am 6 9 mph 1024mb 42f 38f
12:36am 6 10 mph 1024.1mb 42f 38f
12:30am 10 11 mph 1024.1mb 42f 38f
12:24am 9 15 mph 1023.9mb 42f 38f
12:18am 14 16 mph 1023.7mb 42f 38f
12:12am 15 16 mph 1023.4mb 41f 38f
12:06am 14 16 mph 1023.6mb 41f 38f
12:00am 15 16 mph 1023.5mb 42f 38f
Sun 01/15 11:54pm 15 17 mph 1023.5mb 42f 38f
11:48pm 14 15 mph 1023.7mb 42f 38f